Regional Weather Roundup
Issued by NWS Charleston, SC

Current Version | Previous Version | Graphics & Text | Print | Product List | Glossary On
Versions: 1 2 3 4 5 6 7 8 9 10 11 12 13 14 15 16 17 18 19 20 21 22 23 24 25 26 27 28 29 30 31 32 33 34 35 36 37 38 39 40 41 42 43 44 45 46 47 48 49 50
000
ASUS42 KCHS 240225
RWRCHS

REGIONAL WEATHER ROUNDUP
NATIONAL WEATHER SERVICE CHARLESTON SC
1000 PM EDT TUE SEP 23 2014

NOTE: "FAIR" INDICATES FEW OR NO CLOUDS BELOW 12,000 FEET WITH NO
SIGNIFICANT WEATHER AND/OR OBSTRUCTIONS TO VISIBILITY.

NOT ALL STATIONS ARE QUALITY CONTROLLED BY THE NATIONAL
WEATHER SERVICE. USE DATA WITH CAUTION...ESPECIALLY
DEWPOINT OBSERVATIONS.

SCZ027-030-031-034>040-042>050-240300-
...SOUTH CAROLINA...

CITY           SKY/WX    TMP DP  RH WIND       PRES   REMARKS
N CHARLESTON   CLOUDY    62  57  83 NE12      30.17S
WATERFRONT PRK NOT AVBL
FORT JOHNSON   NOT AVBL
MOUNT PLEASANT CLOUDY    61  59  94 N9G17     30.17S
JOHNS ISLAND   LGT RAIN  63  63 100 N15G21    30.17R
PINOPOLIS        N/A     63  59  88 NE16      30.12R
MONCKS CORNER    N/A     63  59  88 NE13G20   30.19S
SUMMERVILLE    CLOUDY    61  59  94 N9        30.20S
BEAUFORT MCAS  CLOUDY    63  58  83 MISG      30.18R
BEAUFORT ARPT  CLOUDY    63  59  88 N18       30.17S
HILTON HEAD IS CLOUDY    64  61  88 N20G26    30.17R
GEORGETOWN     NOT AVBL
WALTERBORO     CLOUDY    63  59  88 N9G16     30.21R
ORANGEBURG     PTCLDY    61  51  70 NE10      30.23R
BARNWELL       FAIR      61  55  82 N9        30.23R
AIKEN          FAIR      59  57  94 N10       30.28R
MANNING        CLOUDY    61  55  82 N9G18     30.22S
KINGSTREE      NOT AVBL
COLUMBIA       PTCLDY    60  52  74 N5        30.25R
SUMTER         CLOUDY    60  51  70 NE10      30.24R
FLORENCE       MOCLDY    58  55  90 NE10      30.25R
MYRTLE BEACH   LGT RAIN  61  55  82 NE17G23   30.19R
N MYRTLE BEACH LGT RAIN  60  57  89 NE18G29   30.19R

$$

GAZ063-065-086>088-099>101-113>116-118-119-134-136>141-150-240300-
...GEORGIA...

CITY           SKY/WX    TMP DP  RH WIND       PRES   REMARKS
SAVANNAH ARPT  CLOUDY    66  58  75 N9G18     30.16R
HUNTER AAF     CLOUDY    66  61  82 VRB6      30.14R
FORT STEWART   CLOUDY    67  60  76 N9        30.15R
STATESBORO     NOT AVBL
SYLVANIA       PTCLDY    67  60  79 NE6       30.20S
CLAXTON        FAIR      66  61  82 NE7G18    30.18S
THOMSON        CLEAR     63  60  89 NE7       30.30R
AUGUSTA-BUSH   CLEAR     61  55  81 N9        30.24R
AUGUSTA-DANIEL PTCLDY    62  55  77 N9        30.25R
SWAINSBORO     FAIR      66  63  88 NE7       30.21R
VIDALIA        CLOUDY    68  63  83 NE8       30.19R
ALMA           CLEAR     70  62  76 VRB5      30.14R
WAYCROSS       CLOUDY    73  66  78 NE13G21   30.13R
JESUP          CLOUDY    72  64  78 NE9G17    30.15R
BRUNSWICK      CLOUDY    72  63  73 N8G17     30.13R
SAINT SIMONS   CLOUDY    71  64  78 NE14G26   30.11R

$$

SCZ027-028-034-036>038-045-046-048>050-GAZ119-141-240300-
...LAKE AND SUPPLEMENTAL COASTAL OBSERVATIONS...

STATION/POSITION TIME  TEMP    WIND        PRES    WAVE   SWELL
                       AIR SEA DIR/SP/G            HT/PER HT/PER/DIR
                 (UTC) (F)     (DEG/KT/KT) (MB)    (FT/S) (FT/S/D)
UPR LAKE MARION  NOT AVBL
WINYAH BAY       0200   60      10/  8     1021.0S
LAKE MURRAY      0100   58     360/  2/  8 1024.0S
ACE BASIN NERRS  0200   62      20/  5     1021.0S
FORT PULASKI     0200   65     360/ 15/ 18 1021.3R
SAPELO ISLAND    NOT AVBL

$$

ANZ835-935-AMZ111-154-330-350-352-354-374-450-454-472-240300-
...C-MAN AND BUOY OBSERVATIONS...

STATION/POSITION TIME  TEMP    WIND        PRES    WAVE   SWELL
                       AIR SEA DIR/SP/G            HT/PER HT/PER/DIR
                 (UTC) (F)     (DEG/KT/KT) (MB)    (FT/S) (FT/S/D)
FOLLY BEACH CMAN 0200   63      10/ 20/ 24 1021.5R
BUOY 41004       0200   72 81   30/ 27/ 33 1018.0R  10/ 8   2/11
BUOY 41008       0200   72 82   30/ 25/ 29 1018.7R   7/ 7
5E ST. MARYS GA  0200      82                N/A     8/ 7
FRYING PAN BUOY  NOT AVBL
BUOY 41025       0200   70      10/ 25/ 31 1020.8R   9/ 7
CAPE LOOKOUT NC  0200   66      20/ 21/ 26 1021.7F
BUOY 41002       0130   79 81  130/ 12/ 14 1019.2R   4/ 8   3/ 60/ 8
BUOY 41010       0200   77 84  150/ 14/ 16 1016.9R   3/ 7   2/ 80/ 7
BUOY 41012       NOT AVBL
ST AUGUSTINE FL  0200   78      20/ 29/ 32 1017.7R
CAPERS NEARSHORE 0100   66      30/ 21/ 27   N/A
FRIPP NEARSHORE  NOT AVBL


$$


USA.gov is the U.S. government's official web portal to all federal, state and local government web resources and services.